Погода в Годжре

Пакистан     32°26′53″N   73°23′04″E
темп.,
°C
ветер,
м/с
пор.,
м/с
влажн.,
%
обл.,
%
осадки,
мм/ч
давл.,
гПа
погр.,
м
15 мая, сб
сб1523:00+29вюв2239100 0.3 100330
02:00+27св224535 0.0 100328
05:00+26всв354587 0.0 1003143
08:00+30св123573 0.0 1006492
11:00+34св442559 0.0 10061889
14:00+33св662328 0.1 10051195
17:00+34св551914 0.2 10031147
20:00+30св3327100 0.0 100448
16 мая, вс
вс1623:00+27с51140100 0.5 1007351
02:00+25св3652100 1.8 1007161
05:00+25с355094 2.8 100779
08:00+30ссв343381 0.0 1008430
11:00+35ссз33203 0.0 10071576
14:00+38сз33174 0.0 10052794
17:00+37ссз33175 0.0 10032624
20:00+33ссв2224100 0.0 100412
17 мая, пн
пн1723:00+31ссз2228100 0.0 100520
02:00+30с3431100 0.0 100557
05:00+27с36375 0.0 100599
08:00+33с23260 0.0 1006381
11:00+38зсз34190 0.0 10062485
14:00+40сз56130 0.0 10043374
17:00+39сз56120 0.0 10022954
20:00+34с34181 0.0 100349
18 мая, вт
вт1823:00+32ссз332398 0.0 100340
02:00+30с332637 0.0 100327
05:00+29ссв33300 0.0 100231
08:00+34св23220 0.0 1004377
11:00+39зюз24140 0.0 10032097
14:00+42з35114 0.0 10004801
17:00+42з5584 0.0 9995148
20:00+35сз34140 0.0 100147
19 мая, ср
ср1923:00+34ссв3415100 0.0 100141
02:00+32зюз51233100 0.0 1002411
05:00+29зюз494277 0.0 1002195
08:00+34с332790 0.0 1003506
11:00+40св221469 0.0 10021422
14:00+42в1310100 0.0 9993939
17:00+34ю121525100 0.1 999529
20:00+33зюз81428100 0.0 1000531